This is the latest recevied weather packets stored in our database for station/object K5YNC. If no packets are shown the sender has not sent any weather packets the latest 10 day(s).
| Time | Temp. | Humidity | Pressure | Rain* | Wind** | Luminosity | Snow |
|---|---|---|---|---|---|---|---|
| 1777184230 | 22.22° C | 85% | 1008.1 hPa | 0 mm | - | 0 W/m² | - |
| 1777183928 | 21.11° C | 88% | 1007.9 hPa | 0 mm | - | 0 W/m² | - |
| 1777183624 | 20.56° C | 89% | 1007.9 hPa | 0 mm | - | 0 W/m² | - |
| 1777183324 | 20.56° C | 89% | 1008.1 hPa | 0 mm | - | 0 W/m² | - |
| 1777183019 | 20.56° C | 88% | 1007.7 hPa | 0 mm | - | 0 W/m² | - |
| 1777182716 | 20.56° C | 88% | 1007.7 hPa | 0 mm | - | 0 W/m² | - |
| 1777182412 | 20° C | 87% | 1007.8 hPa | 0 mm | - | 0 W/m² | - |
| 1777182109 | 20.56° C | 86% | 1007.9 hPa | 0 mm | - | 0 W/m² | - |
| 1777181805 | 20.56° C | 85% | 1007.6 hPa | 0 mm | - | 0 W/m² | - |
| 1777181502 | 20.56° C | 83% | 1007.6 hPa | 0 mm | - | 0 W/m² | - |
| 1777181200 | 21.11° C | 82% | 1007.5 hPa | 0 mm | - | 0 W/m² | - |
| 1777180896 | 21.11° C | 80% | 1007.6 hPa | 0 mm | - | 0 W/m² | - |
| 1777180592 | 21.67° C | 82% | 1007.9 hPa | 0 mm | - | 0 W/m² | - |
| 1777180289 | 21.67° C | 83% | 1007.4 hPa | 0 mm | - | 0 W/m² | - |
| 1777179986 | 22.22° C | 85% | 1007.2 hPa | 0 mm | - | 0 W/m² | - |
| 1777179682 | 22.22° C | 84% | 1007.6 hPa | 1.27 mm | - | 0 W/m² | - |
| 1777179381 | 22.22° C | 83% | 1007.7 hPa | 8.89 mm | - | 0 W/m² | - |
| 1777179080 | 22.22° C | 81% | 1007.8 hPa | 8.89 mm | - | 0 W/m² | - |
| 1777178778 | 22.22° C | 83% | 1007.7 hPa | 1.27 mm | - | 0 W/m² | - |
| 1777178474 | 22.78° C | 81% | 1007.8 hPa | 0 mm | - | 0 W/m² | - |
| 1777178170 | 22.78° C | 80% | 1007.7 hPa | 0 mm | - | 0 W/m² | - |
| 1777177869 | 23.33° C | 79% | 1007.8 hPa | 0 mm | - | 0 W/m² | - |
| 1777177564 | 22.78° C | 78% | 1007.6 hPa | 0 mm | - | 0 W/m² | - |
| 1777177260 | 23.33° C | 78% | 1007.6 hPa | 0 mm | - | 0 W/m² | - |
| 1777176957 | 23.33° C | 76% | 1007.7 hPa | 0 mm | - | 0 W/m² | - |
* Rain latest hour (hover to see other rain measurements)
** Current wind speed in m/s (hover to see current wind gust speed)